EMGATE Weather Reports


time (UTC)temp
F
wind
direction
speed
knots
gust
knots
rain 1hr
in
rain 24hr
in
rain mn
in
humidity
%
barometer
mb
20260504110414 33 34 0.0 1.7 0.00 0.00 0.00 80 1004.7
20260504100415 29 9 0.0 0.9 0.00 0.00 0.00 84 1005.1
20260504081915 28 11 0.0 0.0 0.00 0.00 0.00 83 1005.4
20260504080415 28 11 0.0 0.0 0.00 0.00 0.00 82 1005.5
20260504050415 31 118 0.0 0.0 0.00 0.00 0.00 78 1005.8
20260504044915 32 118 0.0 0.0 0.00 0.00 0.00 78 1006.0
20260504043415 32 118 0.0 0.9 0.00 0.00 0.00 78 1006.2
20260504041915 32 195 0.0 0.0 0.00 0.00 0.00 76 1006.3
20260504040415 33 195 0.0 0.0 0.00 0.00 0.00 75 1006.2
20260504034915 34 195 0.0 0.0 0.00 0.00 0.00 74 1006.3
20260504033415 34 195 0.0 0.0 0.00 0.00 0.00 73 1006.3
20260504031915 34 195 0.0 0.0 0.00 0.00 0.00 73 1006.3
20260504030415 35 195 0.0 0.0 0.00 0.00 0.00 72 1006.4
20260504024915 36 195 0.0 0.0 0.00 0.00 0.00 72 1006.4
20260504023415 37 195 0.0 0.0 0.00 0.00 0.00 71 1006.3
20260504021915 37 195 0.0 0.0 0.00 0.00 0.00 70 1006.6
20260504020415 38 195 0.0 0.0 0.00 0.00 0.00 69 1006.7
20260504014915 39 195 0.0 0.0 0.00 0.00 0.00 67 1006.9
20260504013415 40 195 0.0 0.0 0.00 0.00 0.00 66 1006.7
20260504011915 41 195 0.0 0.0 0.00 0.00 0.00 63 1006.8
20260504010415 42 195 0.0 0.0 0.00 0.00 0.00 60 1006.8
20260504004915 43 195 0.0 0.0 0.00 0.00 0.00 58 1006.7
20260504003415 44 195 0.0 0.0 0.00 0.00 0.00 57 1006.6
20260504001915 45 195 0.0 0.0 0.00 0.00 0.00 54 1006.5
20260504000416 45 195 0.0 0.0 0.00 0.00 0.00 52 1006.5
20260503234915 46 193 0.0 0.0 0.00 0.00 0.00 52 1006.5
20260503233415 47 193 0.0 0.0 0.00 0.00 0.00 49 1006.3
20260503231915 47 193 0.0 0.0 0.00 0.00 0.00 46 1006.3
20260503230415 48 174 0.0 0.0 0.00 0.00 0.00 44 1006.5
20260503224915 48 172 0.0 0.0 0.00 0.00 0.00 44 1006.5
20260503223415 48 186 0.9 2.6 0.00 0.00 0.00 43 1006.4
20260503221915 48 200 0.0 0.0 0.00 0.02 0.00 45 1006.3
20260503220415 48 175 0.0 1.7 0.00 0.02 0.00 45 1006.5
20260503214915 49 206 0.9 3.5 0.00 0.02 0.00 44 1006.4
20260503213415 49 174 0.9 3.5 0.00 0.02 0.00 45 1006.6
20260503211915 50 256 0.9 2.6 0.00 0.02 0.00 44 1006.6
20260503210415 49 181 0.9 2.6 0.00 0.02 0.00 44 1006.6
20260503204915 50 230 1.7 5.2 0.00 0.02 0.00 45 1006.6
20260503203415 50 320 1.7 3.5 0.00 0.02 0.00 40 1006.6
20260503201915 51 303 4.3 6.1 0.00 0.02 0.00 38 1006.7
20260503200415 50 245 4.3 9.6 0.00 0.02 0.00 39 1006.7
20260503194915 49 306 2.6 6.1 0.00 0.02 0.00 42 1006.9
20260503193415 48 294 2.6 8.7 0.00 0.02 0.00 45 1007.1
20260503191915 48 266 5.2 9.6 0.00 0.02 0.00 43 1007.2
20260503190415 48 221 2.6 4.3 0.00 0.02 0.00 49 1007.3
20260503184915 48 235 3.5 6.1 0.00 0.02 0.00 49 1007.4
20260503183415 47 239 3.5 5.2 0.00 0.02 0.00 51 1007.6
20260503181915 48 234 2.6 6.1 0.00 0.02 0.00 47 1007.7
20260503180415 49 184 3.5 7.0 0.00 0.02 0.00 47 1007.8
20260503174915 47 203 2.6 7.0 0.00 0.02 0.00 50 1008.0
20260503173415 47 243 4.3 9.6 0.00 0.02 0.00 48 1008.1
20260503171915 49 255 3.5 7.0 0.00 0.02 0.00 45 1008.1
20260503170415 48 359 3.5 8.7 0.00 0.02 0.00 48 1008.4
20260503150415 51 215 2.6 7.0 0.00 0.02 0.00 45 1009.9
20260503130415 46 27 3.5 5.2 0.00 0.02 0.00 54 1011.3